Columbia Airport, CA

7:35 PM PDT on October 22, 2019 (GMT -0700)
Columbia Airport

Weather History for KO22 - August, 2019

Change the Weather History Date:

Wednesday, August 7, 2019

  Actual Average (WUND) Record (WUND)
Temperature  
Mean Temperature 80 °F -  
Max Temperature 95 °F - - (-1)
Min Temperature 64 °F - - (-1)
Cooling Degree Days 14    
Growing Degree Days 30 (Base 50)    
Moisture  
Dew Point 50 °F    
Average Humidity 40    
Maximum Humidity 64    
Minimum Humidity 19    
Precipitation  
Precipitation 0.00 in - - ()
Sea Level Pressure  
Sea Level Pressure 29.95 in    
Wind  
Wind Speed 2 mph (WSW)    
Max Wind Speed 9 mph    
Max Gust Speed 15 mph    
Visibility 10 miles    
Events      
Averages and records for this station are not official NWS values.
T = Trace of Precipitation, MM = Missing Value Source: NWS Daily Summary

Daily Weather History Graph

Daily Weather History Graph

Search for Another Location

Airport or City:

Astronomy

Aug. 07, 2019 Rise Set
Actual Time 6:09 AM PDT 8:04 PM PDT
Civil Twilight 5:40 AM PDT 8:33 PM PDT
Nautical Twilight 5:05 AM PDT 9:08 PM PDT
Astronomical Twilight 4:28 AM PDT 9:45 PM PDT
Moon 1:40 PM PDT (8/7) 12:00 AM PDT (8/7)
Length of Visible Light 14h 52m
Length of Day
13h 54m
Waxing Crescent, 51% of the Moon is Illuminated
Aug 7
Waxing Crescent
Aug 15
Full
Aug 23
Last Quarter
Aug 30
New
Sep 5
First Quarter

Hourly Weather History & Observations

Time (PDT) Temp. Heat Index Dew Point Humidity Pressure Visibility Wind Dir Wind Speed Gust Speed Precip Events Conditions
12:15 AM 69.8 °F - 53.6 °F 56% 29.96 in 10.0 mi Calm Calm - N/A   Clear
12:35 AM 69.8 °F - 51.8 °F 53% 29.95 in 10.0 mi Calm Calm - N/A   Clear
12:55 AM 68.0 °F - 51.8 °F 56% 29.95 in 10.0 mi North - - N/A   Clear
1:15 AM 68.0 °F - 51.8 °F 56% 29.95 in 10.0 mi Calm Calm - N/A   Clear
1:35 AM 68.0 °F - 51.8 °F 56% 29.95 in 10.0 mi Calm Calm - N/A   Clear
1:55 AM 66.2 °F - 51.8 °F 60% 29.95 in 10.0 mi Calm Calm - N/A   Clear
2:15 AM 66.2 °F - 51.8 °F 60% 29.94 in 10.0 mi Calm Calm - N/A   Clear
2:35 AM 66.2 °F - 51.8 °F 60% 29.94 in 10.0 mi Calm Calm - N/A   Clear
2:55 AM 68.0 °F - 51.8 °F 56% 29.94 in 10.0 mi Calm Calm - N/A   Clear
3:15 AM 68.0 °F - 51.8 °F 56% 29.94 in 10.0 mi Calm Calm - N/A   Clear
3:35 AM 66.2 °F - 51.8 °F 60% 29.94 in 10.0 mi Calm Calm - N/A   Clear
3:55 AM 66.2 °F - 51.8 °F 60% 29.94 in 10.0 mi North - - N/A   Clear
4:15 AM 66.2 °F - 51.8 °F 60% 29.94 in 10.0 mi North - - N/A   Clear
4:35 AM 64.4 °F - 51.8 °F 64% 29.94 in 10.0 mi North - - N/A   Clear
4:55 AM 64.4 °F - 51.8 °F 64% 29.94 in 10.0 mi Calm Calm - N/A   Clear
5:15 AM 64.4 °F - 51.8 °F 64% 29.94 in 10.0 mi Calm Calm - N/A   Clear
5:35 AM 64.4 °F - 51.8 °F 64% 29.94 in 10.0 mi North - - N/A   Clear
5:55 AM 64.4 °F - 51.8 °F 64% 29.94 in 10.0 mi Calm Calm - N/A   Clear
6:15 AM 64.4 °F - 51.8 °F 64% 29.94 in 10.0 mi Calm Calm - N/A   Clear
6:35 AM 64.4 °F - 51.8 °F 64% 29.95 in 10.0 mi North - - N/A   Clear
6:55 AM 66.2 °F - 53.6 °F 64% 29.95 in 10.0 mi Calm Calm - N/A   Clear
7:35 AM 69.8 °F - 55.4 °F 60% 29.96 in 10.0 mi North - - N/A   Clear
7:55 AM 71.6 °F - 57.2 °F 60% 29.96 in 10.0 mi Calm Calm - N/A   Clear
8:15 AM 77.0 °F - 59.0 °F 54% 29.96 in 10.0 mi Calm Calm - N/A   Clear
8:35 AM 78.8 °F - 59.0 °F 51% 29.96 in 10.0 mi Calm Calm - N/A   Clear
8:55 AM 84.2 °F 82.8 °F 53.6 °F 35% 29.96 in 10.0 mi Calm Calm - N/A   Clear
9:15 AM 86.0 °F - 50.0 °F 29% 29.97 in 10.0 mi Variable 4.6 mph - N/A   Clear
9:35 AM 87.8 °F - 51.8 °F 29% 29.97 in 8.0 mi Variable 3.5 mph - N/A   Clear
9:55 AM 87.8 °F - 51.8 °F 29% 29.97 in 10.0 mi Variable 5.8 mph - N/A   Clear
10:15 AM 87.8 °F - 51.8 °F 29% 29.97 in 10.0 mi Variable 5.8 mph - N/A   Clear
10:35 AM 87.8 °F - 51.8 °F 29% 29.97 in 10.0 mi Variable 5.8 mph - N/A   Clear
10:55 AM 89.6 °F - 51.8 °F 27% 29.97 in 10.0 mi Variable 4.6 mph - N/A   Clear
11:15 AM 91.4 °F - 51.8 °F 26% 29.98 in 10.0 mi Variable 4.6 mph - N/A   Clear
11:35 AM 91.4 °F - 51.8 °F 26% 29.97 in 10.0 mi Variable 5.8 mph - N/A   Clear
11:55 AM 93.2 °F - 50.0 °F 23% 29.97 in 10.0 mi Variable 4.6 mph - N/A   Clear
12:15 PM 93.2 °F - 48.2 °F 21% 29.97 in 10.0 mi Variable 4.6 mph 11.5 mph N/A   Clear
12:35 PM 93.2 °F - 48.2 °F 21% 29.97 in 10.0 mi Variable 8.1 mph - N/A   Clear
12:55 PM 95.0 °F - 48.2 °F 20% 29.97 in 10.0 mi Variable 4.6 mph - N/A   Clear
1:15 PM 95.0 °F - 48.2 °F 20% 29.97 in 10.0 mi Variable 9.2 mph - N/A   Clear
1:35 PM 93.2 °F - 48.2 °F 21% 29.96 in 10.0 mi Variable 6.9 mph - N/A   Clear
1:55 PM 95.0 °F - 46.4 °F 19% 29.96 in 10.0 mi Variable 4.6 mph - N/A   Clear
2:15 PM 95.0 °F - 48.2 °F 20% 29.96 in 10.0 mi Variable 5.8 mph 12.7 mph N/A   Clear
2:35 PM 95.0 °F - 46.4 °F 19% 29.96 in 10.0 mi WSW 9.2 mph - N/A   Clear
3:15 PM 95.0 °F - 46.4 °F 19% 29.94 in 10.0 mi SW 4.6 mph - N/A   Clear
3:35 PM 95.0 °F - 46.4 °F 19% 29.94 in 10.0 mi West 8.1 mph - N/A   Clear
3:55 PM 95.0 °F - 46.4 °F 19% 29.93 in 10.0 mi Variable 6.9 mph 12.7 mph N/A   Clear
4:15 PM 95.0 °F - 46.4 °F 19% 29.93 in 10.0 mi Variable 6.9 mph 13.8 mph N/A   Clear
4:35 PM 93.2 °F - 46.4 °F 20% 29.93 in 10.0 mi Variable 8.1 mph 15.0 mph N/A   Clear
4:55 PM 93.2 °F - 46.4 °F 20% 29.93 in 10.0 mi Variable 9.2 mph - N/A   Clear
5:15 PM 91.4 °F - 46.4 °F 21% 29.93 in 10.0 mi Variable 5.8 mph 13.8 mph N/A   Clear
5:35 PM 91.4 °F - 46.4 °F 21% 29.93 in 10.0 mi Variable 5.8 mph - N/A   Clear
5:55 PM 89.6 °F - 44.6 °F 21% 29.93 in 10.0 mi Variable 5.8 mph - N/A   Clear
6:15 PM 87.8 °F - 44.6 °F 22% 29.93 in 10.0 mi Variable 4.6 mph - N/A   Clear
6:35 PM 87.8 °F - 44.6 °F 22% 29.92 in 10.0 mi Variable 5.8 mph - N/A   Clear
6:55 PM 87.8 °F - 44.6 °F 22% 29.92 in 10.0 mi Variable 4.6 mph - N/A   Clear
7:15 PM 86.0 °F - 46.4 °F 25% 29.93 in 10.0 mi Variable 4.6 mph - N/A   Clear
7:35 PM 84.2 °F - 48.2 °F 29% 29.93 in 10.0 mi Variable 5.8 mph - N/A   Clear
7:55 PM 82.4 °F - 46.4 °F 28% 29.93 in 10.0 mi SW 4.6 mph - N/A   Clear
8:15 PM 80.6 °F - 46.4 °F 30% 29.93 in 10.0 mi Variable 5.8 mph - N/A   Clear
8:35 PM 78.8 °F - 46.4 °F 32% 29.94 in 10.0 mi Calm Calm - N/A   Clear
8:55 PM 75.2 °F - 48.2 °F 38% 29.94 in 10.0 mi Calm Calm - N/A   Clear
9:15 PM 73.4 °F - 48.2 °F 41% 29.94 in 10.0 mi Calm Calm - N/A   Clear
9:35 PM 71.6 °F - 50.0 °F 46% 29.95 in 10.0 mi Calm Calm - N/A   Clear
9:55 PM 71.6 °F - 46.4 °F 41% 29.96 in 10.0 mi Calm Calm - N/A   Clear
10:15 PM 69.8 °F - 50.0 °F 49% 29.96 in 10.0 mi Calm Calm - N/A   Clear
10:35 PM 69.8 °F - 50.0 °F 49% 29.96 in 10.0 mi Calm Calm - N/A   Clear
10:55 PM 68.0 °F - 50.0 °F 52% 29.96 in 10.0 mi Calm Calm - N/A   Clear
11:15 PM 66.2 °F - 48.2 °F 52% 29.96 in 10.0 mi North - - N/A   Clear
11:35 PM 66.2 °F - 48.2 °F 52% 29.96 in 10.0 mi Variable 3.5 mph - N/A   Clear
11:55 PM 66.2 °F - 48.2 °F 52% 29.96 in 10.0 mi Calm Calm - N/A   Clear